Location: Unspecified
(48.2082°N, 0.0000°E)
Time: 09:13:33
(UTC+00:00)

Tiros 1 despin weight - Pass Details

Date: 26 June 2019
Orbit: 594 x 642 km, 48.2° (Epoch: 24 August)

Event Time Altitude Azimuth Distance (km) Brightness Sun altitude
Rises 02:30:57 0° 283° (WNW) 2,838 ? -11.1°
Reaches altitude 10° 02:33:17 10° 279° (W) 1,931 ? -10.9°
Maximum altitude 02:37:34 51° 204° (SSW) 752 ? -10.5°
Drops below altitude 10° 02:41:50 10° 128° (SE) 1,923 ? -10.0°
Sets 02:44:09 0° 124° (ESE) 2,825 ? -9.8°
